DAH4700 DAAG-HECA

Flight info

Callsign DAH4700
Flight time 3h 22m
Altitude 35000
Route BABOR1C BABOR UA31 CSO UW254 DIMAO UL874 OMENI DCT NEVNA DCT GZO DCT BINKO DCT DEMAG UM978 SIT UL612 KUMBI L612 BLT A16 CVO
Aircraft B738/M-SDE2E3FGHIRWXY/LB1

Departure

Time 2026-05-06 16:51
Airport Houari Boumediene Airport (DAAG)

Arrival

Time 2026-05-06 20:13
Airport Cairo International Airport (HECA)
Time Latitude Longitude Altitude Speed Heading
2026-05-06 16:37 36.69379 3.20568 69 ft 0 kts 181°
2026-05-06 16:43 36.69366 3.20567 69 ft 3 kts 181°
2026-05-06 16:43 36.69344 3.20566 63 ft 3 kts 181°
2026-05-06 16:44 36.69322 3.20566 64 ft 3 kts 181°
2026-05-06 16:44 36.69301 3.20570 70 ft 3 kts 153°
2026-05-06 16:44 36.69290 3.20592 66 ft 3 kts 106°
2026-05-06 16:44 36.69290 3.20621 64 ft 4 kts 91°
2026-05-06 16:45 36.69289 3.20652 63 ft 3 kts 91°
2026-05-06 16:45 36.69289 3.20682 70 ft 4 kts 91°
2026-05-06 16:45 36.69288 3.20723 63 ft 6 kts 91°
2026-05-06 16:45 36.69287 3.20787 70 ft 9 kts 92°
2026-05-06 16:46 36.69284 3.20870 64 ft 11 kts 92°
2026-05-06 16:46 36.69281 3.20968 62 ft 12 kts 92°
2026-05-06 16:46 36.69280 3.21074 67 ft 12 kts 91°
2026-05-06 16:46 36.69278 3.21180 61 ft 12 kts 91°
2026-05-06 16:47 36.69280 3.21270 69 ft 10 kts 78°
2026-05-06 16:47 36.69313 3.21340 69 ft 9 kts 51°
2026-05-06 16:47 36.69352 3.21402 63 ft 9 kts 52°
2026-05-06 16:47 36.69379 3.21471 62 ft 9 kts 74°
2026-05-06 16:48 36.69383 3.21545 66 ft 9 kts 91°
2026-05-06 16:48 36.69382 3.21618 69 ft 8 kts 90°
2026-05-06 16:48 36.69382 3.21688 65 ft 8 kts 90°
2026-05-06 16:48 36.69382 3.21757 69 ft 8 kts 90°
2026-05-06 16:49 36.69382 3.21812 66 ft 4 kts 89°
2026-05-06 16:49 36.69382 3.21836 66 ft 2 kts 90°
2026-05-06 16:49 36.69382 3.21859 65 ft 5 kts 90°
2026-05-06 16:49 36.69380 3.21931 67 ft 11 kts 91°
2026-05-06 16:50 36.69383 3.22011 75 ft 10 kts 67°
2026-05-06 16:50 36.69556 3.22298 73 ft 82 kts 53°
2026-05-06 16:50 36.70059 3.23122 81 ft 154 kts 52°
2026-05-06 16:50 36.70522 3.23874 295 ft 175 kts 52°
2026-05-06 16:51 36.71543 3.25687 991 ft 206 kts 71°
2026-05-06 16:51 36.71679 3.27527 1539 ft 216 kts 87°
2026-05-06 16:51 36.71732 3.29417 2075 ft 225 kts 85°
2026-05-06 16:51 36.72184 3.31288 2729 ft 232 kts 53°
2026-05-06 16:52 36.73514 3.32533 3180 ft 258 kts 19°
2026-05-06 16:52 36.75446 3.32855 3003 ft 311 kts 354°
2026-05-06 16:52 36.77624 3.31889 3244 ft 348 kts 328°
2026-05-06 16:52 36.78815 3.30639 4397 ft 331 kts 313°
2026-05-06 16:53 36.80130 3.28291 5715 ft 337 kts 296°
2026-05-06 16:53 36.80720 3.25365 6138 ft 360 kts 266°
2026-05-06 16:53 36.80191 3.22226 6571 ft 383 kts 251°
2026-05-06 16:53 36.79226 3.19100 6536 ft 386 kts 247°
2026-05-06 16:54 36.78105 3.16097 6446 ft 372 kts 243°
2026-05-06 16:54 36.76850 3.13343 6271 ft 358 kts 236°
2026-05-06 16:54 36.75418 3.10898 6229 ft 344 kts 231°
2026-05-06 16:54 36.73862 3.08762 6585 ft 314 kts 221°
2026-05-06 16:55 36.72203 3.07257 6997 ft 288 kts 207°
2026-05-06 16:55 36.70375 3.06428 7173 ft 275 kts 192°
2026-05-06 16:55 36.68498 3.06130 7211 ft 259 kts 178°
2026-05-06 16:55 36.66762 3.06620 7381 ft 259 kts 153°
2026-05-06 16:56 36.65231 3.07855 7209 ft 267 kts 140°
2026-05-06 16:56 36.63900 3.09466 7138 ft 260 kts 130°
2026-05-06 16:56 36.62878 3.11216 7516 ft 244 kts 117°
2026-05-06 16:56 36.62155 3.13196 7868 ft 259 kts 112°
2026-05-06 16:57 36.61517 3.15329 8162 ft 263 kts 108°
2026-05-06 16:57 36.60978 3.17514 8390 ft 268 kts 106°
2026-05-06 16:57 36.60618 3.19823 8350 ft 282 kts 85°
2026-05-06 16:57 36.61241 3.22160 8876 ft 289 kts 64°
2026-05-06 16:58 36.61813 3.24547 9581 ft 291 kts 85°
2026-05-06 16:58 36.61954 3.27076 10244 ft 298 kts 87°
2026-05-06 16:58 36.62124 3.29739 10447 ft 321 kts 86°
2026-05-06 16:58 36.62353 3.32598 10612 ft 343 kts 84°
2026-05-06 16:59 36.62634 3.35638 10775 ft 364 kts 84°
2026-05-06 16:59 36.62956 3.38841 10962 ft 382 kts 83°
2026-05-06 16:59 36.63302 3.42126 11410 ft 391 kts 83°
2026-05-06 16:59 36.63665 3.45516 11977 ft 397 kts 83°
2026-05-06 17:00 36.64036 3.48938 12580 ft 402 kts 83°
2026-05-06 17:00 36.64411 3.52407 13134 ft 407 kts 83°
2026-05-06 17:00 36.64787 3.55915 13774 ft 409 kts 83°
2026-05-06 17:00 36.65114 3.59444 14338 ft 412 kts 89°
2026-05-06 17:01 36.64907 3.62998 14866 ft 414 kts 100°
2026-05-06 17:01 36.64471 3.66557 15434 ft 417 kts 101°
2026-05-06 17:01 36.64005 3.70150 15953 ft 422 kts 101°
2026-05-06 17:01 36.63540 3.73761 16489 ft 425 kts 101°
2026-05-06 17:02 36.63091 3.77369 17031 ft 428 kts 101°
2026-05-06 17:02 36.62641 3.81103 17523 ft 432 kts 100°
2026-05-06 17:02 36.62256 3.84374 17917 ft 436 kts 100°
2026-05-06 17:02 36.61819 3.88133 18383 ft 440 kts 100°
2026-05-06 17:03 36.61383 3.91912 18877 ft 443 kts 100°
2026-05-06 17:03 36.60944 3.95720 19359 ft 446 kts 100°
2026-05-06 17:03 36.60500 3.99560 19821 ft 450 kts 101°
2026-05-06 17:03 36.60052 4.03421 20267 ft 453 kts 100°
2026-05-06 17:04 36.59599 4.07312 20705 ft 456 kts 101°
2026-05-06 17:04 36.59140 4.11231 21108 ft 459 kts 100°
2026-05-06 17:04 36.58678 4.15174 21517 ft 462 kts 101°
2026-05-06 17:04 36.58211 4.19147 21920 ft 465 kts 101°
2026-05-06 17:05 36.57741 4.23131 22255 ft 468 kts 101°
2026-05-06 17:05 36.57264 4.27157 22612 ft 471 kts 101°
2026-05-06 17:05 36.56786 4.31183 22965 ft 474 kts 101°
2026-05-06 17:05 36.56302 4.35251 23331 ft 476 kts 101°
2026-05-06 17:06 36.55814 4.39330 23656 ft 479 kts 101°
2026-05-06 17:06 36.55322 4.43441 23950 ft 482 kts 101°
2026-05-06 17:06 36.54825 4.47567 24308 ft 483 kts 101°
2026-05-06 17:06 36.54324 4.51716 24562 ft 487 kts 101°
2026-05-06 17:07 36.53814 4.55910 24659 ft 493 kts 101°
2026-05-06 17:07 36.53281 4.60135 24828 ft 494 kts 102°
2026-05-06 17:07 36.52759 4.64376 25066 ft 499 kts 100°
2026-05-06 17:07 36.52313 4.68681 25310 ft 502 kts 101°
2026-05-06 17:08 36.51800 4.72980 25549 ft 507 kts 102°
2026-05-06 17:08 36.51243 4.77311 25834 ft 507 kts 101°
2026-05-06 17:08 36.50693 4.81669 25955 ft 512 kts 102°
2026-05-06 17:08 36.50162 4.86042 26099 ft 515 kts 101°
2026-05-06 17:09 36.49610 4.90469 26238 ft 520 kts 102°
2026-05-06 17:09 36.49037 4.94908 26485 ft 520 kts 102°
2026-05-06 17:09 36.48482 4.99290 26663 ft 522 kts 102°
2026-05-06 17:09 36.47942 5.03783 26772 ft 529 kts 101°
2026-05-06 17:10 36.47433 5.08300 27029 ft 529 kts 99°
2026-05-06 17:10 36.46944 5.12907 27231 ft 533 kts 100°
2026-05-06 17:10 36.46421 5.17409 27413 ft 535 kts 102°
2026-05-06 17:10 36.45854 5.21984 27548 ft 538 kts 101°
2026-05-06 17:11 36.45298 5.26608 27830 ft 540 kts 101°
2026-05-06 17:11 36.44759 5.31223 28130 ft 540 kts 101°
2026-05-06 17:11 36.44218 5.35846 28259 ft 542 kts 101°
2026-05-06 17:12 36.43142 5.45200 28513 ft 551 kts 101°
2026-05-06 17:12 36.42585 5.49907 28902 ft 550 kts 101°
2026-05-06 17:12 36.42003 5.54602 29202 ft 551 kts 102°
2026-05-06 17:12 36.41425 5.59317 29309 ft 554 kts 100°
2026-05-06 17:13 36.40863 5.64095 29353 ft 561 kts 102°
2026-05-06 17:13 36.40301 5.68879 29546 ft 559 kts 102°
2026-05-06 17:13 36.39707 5.73659 29607 ft 561 kts 101°
2026-05-06 17:13 36.39144 5.78495 29758 ft 567 kts 101°
2026-05-06 17:14 36.38572 5.83316 30194 ft 563 kts 101°
2026-05-06 17:14 36.38002 5.88145 30405 ft 567 kts 101°
2026-05-06 17:14 36.37440 5.93004 30570 ft 572 kts 101°
2026-05-06 17:14 36.36893 5.97891 30869 ft 573 kts 101°
2026-05-06 17:15 36.36321 6.02766 31258 ft 568 kts 103°
2026-05-06 17:15 36.35685 6.07588 31587 ft 565 kts 103°
2026-05-06 17:15 36.35067 6.12417 31792 ft 567 kts 102°
2026-05-06 17:15 36.34471 6.17249 32028 ft 566 kts 101°
2026-05-06 17:16 36.33966 6.22092 32271 ft 567 kts 102°
2026-05-06 17:16 36.33404 6.26925 32546 ft 567 kts 102°
2026-05-06 17:16 36.32809 6.31760 33020 ft 563 kts 102°
2026-05-06 17:16 36.32218 6.36538 33426 ft 559 kts 102°
2026-05-06 17:17 36.31661 6.41306 33738 ft 559 kts 102°
2026-05-06 17:17 36.31094 6.46068 34116 ft 557 kts 102°
2026-05-06 17:17 36.30550 6.50715 34603 ft 548 kts 102°
2026-05-06 17:17 36.29980 6.55369 34916 ft 544 kts 102°
2026-05-06 17:18 36.29504 6.60104 34891 ft 550 kts 97°
2026-05-06 17:18 36.29669 6.69602 34943 ft 554 kts 85°
2026-05-06 17:19 36.30433 6.79009 34952 ft 544 kts 84°
2026-05-06 17:19 36.31162 6.88294 34949 ft 543 kts 84°
2026-05-06 17:20 36.31928 6.97630 34919 ft 546 kts 84°
2026-05-06 17:20 36.32557 7.07004 34932 ft 546 kts 86°
2026-05-06 17:21 36.33136 7.16372 34941 ft 545 kts 86°
2026-05-06 17:21 36.33716 7.25699 34939 ft 543 kts 85°
2026-05-06 17:22 36.34417 7.34974 34907 ft 538 kts 85°
2026-05-06 17:22 36.34993 7.44209 34905 ft 537 kts 86°
2026-05-06 17:23 36.35534 7.53453 34906 ft 537 kts 85°
2026-05-06 17:23 36.36102 7.62729 34913 ft 542 kts 85°
2026-05-06 17:24 36.36687 7.72119 34913 ft 549 kts 85°
2026-05-06 17:24 36.37272 7.81608 34919 ft 553 kts 85°
2026-05-06 17:25 36.37849 7.91141 34899 ft 553 kts 85°
2026-05-06 17:25 36.38412 8.00566 34898 ft 545 kts 85°
2026-05-06 17:26 36.38964 8.09936 34896 ft 544 kts 85°
2026-05-06 17:26 36.39507 8.19288 34912 ft 544 kts 85°
2026-05-06 17:27 36.40046 8.28656 34903 ft 544 kts 85°
2026-05-06 17:27 36.40294 8.38022 34911 ft 542 kts 96°
2026-05-06 17:28 36.38999 8.47182 34916 ft 539 kts 105°
2026-05-06 17:28 36.37442 8.56278 34907 ft 539 kts 104°
2026-05-06 17:29 36.35940 8.65381 34904 ft 538 kts 104°
2026-05-06 17:29 36.34483 8.74490 34912 ft 538 kts 104°
2026-05-06 17:30 36.33028 8.83585 34904 ft 538 kts 104°
2026-05-06 17:30 36.31562 8.92669 34911 ft 537 kts 104°
2026-05-06 17:31 36.30086 9.01749 34908 ft 537 kts 104°
2026-05-06 17:31 36.28614 9.10758 34904 ft 536 kts 104°
2026-05-06 17:32 36.27128 9.19808 34908 ft 535 kts 104°
2026-05-06 17:32 36.25641 9.28840 34895 ft 534 kts 104°
2026-05-06 17:33 36.24303 9.37902 34907 ft 536 kts 100°
2026-05-06 17:33 36.23271 9.47064 34896 ft 537 kts 99°
2026-05-06 17:34 36.22258 9.56228 34895 ft 537 kts 100°
2026-05-06 17:34 36.21175 9.65412 34886 ft 540 kts 100°
2026-05-06 17:35 36.20090 9.74621 34897 ft 543 kts 100°
2026-05-06 17:35 36.18964 9.83897 34873 ft 546 kts 100°
2026-05-06 17:36 36.17275 9.97907 34878 ft 550 kts 100°
2026-05-06 17:36 36.16122 10.07298 34883 ft 552 kts 100°
2026-05-06 17:37 36.14741 10.16656 34851 ft 551 kts 109°
2026-05-06 17:37 36.12289 10.25579 34860 ft 547 kts 113°
2026-05-06 17:38 36.09811 10.34478 34862 ft 547 kts 111°
2026-05-06 17:38 36.07613 10.43478 34853 ft 549 kts 103°
2026-05-06 17:39 36.06953 10.52858 34876 ft 547 kts 92°
2026-05-06 17:39 36.06811 10.62162 34850 ft 544 kts 91°
2026-05-06 17:40 36.06642 10.69951 34851 ft 539 kts 92°
2026-05-06 17:40 36.06344 10.80655 34847 ft 533 kts 92°
2026-05-06 17:41 36.06054 10.89756 34841 ft 527 kts 92°
2026-05-06 17:41 36.05810 10.97308 34838 ft 523 kts 92°
2026-05-06 17:42 36.05525 11.06239 34840 ft 518 kts 92°
2026-05-06 17:42 36.05236 11.15043 34847 ft 515 kts 92°
2026-05-06 17:43 36.04941 11.23868 34843 ft 513 kts 92°
2026-05-06 17:43 36.04639 11.32661 34851 ft 512 kts 93°
2026-05-06 17:44 36.04360 11.41435 34840 ft 511 kts 92°
2026-05-06 17:44 36.04094 11.50213 34859 ft 511 kts 92°
2026-05-06 17:45 36.04041 11.59015 34855 ft 513 kts 89°
2026-05-06 17:45 36.04193 11.67835 34855 ft 514 kts 88°
2026-05-06 17:46 36.04319 11.76665 34853 ft 515 kts 89°
2026-05-06 17:46 36.04394 11.85513 34854 ft 515 kts 89°
2026-05-06 17:47 36.04445 11.94378 34852 ft 516 kts 89°
2026-05-06 17:47 36.04487 12.03238 34850 ft 516 kts 89°
2026-05-06 17:48 36.04527 12.12089 34838 ft 515 kts 90°
2026-05-06 17:48 36.04560 12.20940 34842 ft 515 kts 90°
2026-05-06 17:49 36.04588 12.29782 34845 ft 514 kts 90°
2026-05-06 17:49 36.04612 12.38597 34839 ft 513 kts 90°
2026-05-06 17:50 36.04628 12.47380 34838 ft 511 kts 90°
2026-05-06 17:50 36.04640 12.56166 34842 ft 510 kts 90°
2026-05-06 17:51 36.04639 12.64861 34850 ft 508 kts 90°
2026-05-06 17:51 36.04633 12.73588 34862 ft 508 kts 90°
2026-05-06 17:52 36.04623 12.82307 34864 ft 506 kts 90°
2026-05-06 17:52 36.04607 12.91004 34863 ft 506 kts 90°
2026-05-06 17:53 36.04585 12.99685 34861 ft 505 kts 90°
2026-05-06 17:53 36.04576 13.08376 34861 ft 506 kts 90°
2026-05-06 17:54 36.04513 13.17044 34877 ft 503 kts 91°
2026-05-06 17:54 36.04498 13.25663 34884 ft 500 kts 91°
2026-05-06 17:55 36.04417 13.34245 34885 ft 499 kts 90°
2026-05-06 17:55 36.04385 13.42808 34906 ft 499 kts 90°
2026-05-06 17:56 36.04323 13.51366 34878 ft 498 kts 92°
2026-05-06 17:56 36.04209 13.59881 34880 ft 497 kts 90°
2026-05-06 17:57 36.04146 13.68475 34911 ft 502 kts 90°
2026-05-06 17:57 36.04279 13.77133 34923 ft 504 kts 89°
2026-05-06 17:58 36.04164 13.85844 34949 ft 509 kts 91°
2026-05-06 17:58 36.03992 13.94544 34915 ft 502 kts 91°
2026-05-06 17:59 36.03861 14.03133 34942 ft 501 kts 92°
2026-05-06 17:59 36.03820 14.11728 34942 ft 500 kts 91°
2026-05-06 18:00 36.03682 14.20348 34926 ft 502 kts 90°
2026-05-06 18:00 36.03444 14.28912 34940 ft 503 kts 94°
2026-05-06 18:01 36.03019 14.37500 34949 ft 501 kts 94°
2026-05-06 18:01 36.02564 14.46102 34931 ft 500 kts 94°
2026-05-06 18:02 36.02128 14.54673 34919 ft 501 kts 94°
2026-05-06 18:02 36.01735 14.63251 34944 ft 501 kts 92°
2026-05-06 18:03 36.01328 14.71796 34952 ft 497 kts 92°
2026-05-06 18:03 36.00851 14.80305 34940 ft 496 kts 94°
2026-05-06 18:04 36.00409 14.88816 34944 ft 497 kts 93°
2026-05-06 18:04 35.99955 14.97304 34948 ft 493 kts 92°
2026-05-06 18:05 35.99564 15.05751 34953 ft 498 kts 92°
2026-05-06 18:05 35.99082 15.14348 34973 ft 505 kts 93°
2026-05-06 18:06 35.98574 15.22981 34972 ft 502 kts 92°
2026-05-06 18:06 35.98194 15.31596 34983 ft 504 kts 94°
2026-05-06 18:07 35.97593 15.40212 34944 ft 501 kts 92°
2026-05-06 18:07 35.97180 15.48793 34944 ft 502 kts 92°
2026-05-06 18:08 35.96715 15.57446 34971 ft 508 kts 93°
2026-05-06 18:08 35.96207 15.66148 34970 ft 508 kts 94°
2026-05-06 18:09 35.95696 15.74828 34967 ft 506 kts 94°
2026-05-06 18:09 35.95184 15.83482 34960 ft 504 kts 94°
2026-05-06 18:10 35.94671 15.92084 34959 ft 502 kts 94°
2026-05-06 18:10 35.94158 16.00647 34960 ft 499 kts 94°
2026-05-06 18:11 35.93640 16.09165 34961 ft 497 kts 94°
2026-05-06 18:11 35.93118 16.17649 34970 ft 495 kts 94°
2026-05-06 18:12 35.92591 16.26110 34970 ft 494 kts 94°
2026-05-06 18:12 35.92057 16.34560 34975 ft 494 kts 94°
2026-05-06 18:13 35.91518 16.43027 34986 ft 496 kts 94°
2026-05-06 18:13 35.90975 16.51468 34993 ft 498 kts 94°
2026-05-06 18:14 35.90421 16.59996 35000 ft 500 kts 94°
2026-05-06 18:14 35.89855 16.68577 35001 ft 503 kts 94°
2026-05-06 18:15 35.89282 16.77190 34987 ft 505 kts 94°
2026-05-06 18:15 35.88700 16.85837 34993 ft 506 kts 93°
2026-05-06 18:16 35.88111 16.94490 34991 ft 507 kts 93°
2026-05-06 18:16 35.87516 17.03141 34983 ft 506 kts 93°
2026-05-06 18:17 35.86920 17.11752 35001 ft 503 kts 93°
2026-05-06 18:17 35.86316 17.20334 35016 ft 501 kts 93°
2026-05-06 18:18 35.85710 17.28880 35019 ft 500 kts 93°
2026-05-06 18:18 35.85102 17.37396 35019 ft 498 kts 93°
2026-05-06 18:19 35.84487 17.45888 35027 ft 496 kts 93°
2026-05-06 18:19 35.83867 17.54342 35026 ft 495 kts 93°
2026-05-06 18:20 35.83245 17.62773 35029 ft 493 kts 93°
2026-05-06 18:20 35.82620 17.71168 35025 ft 491 kts 93°
2026-05-06 18:21 35.81991 17.79533 35030 ft 489 kts 93°
2026-05-06 18:21 35.81359 17.87871 35022 ft 488 kts 93°
2026-05-06 18:22 35.80722 17.96193 35028 ft 488 kts 93°
2026-05-06 18:22 35.80080 18.04506 35029 ft 488 kts 93°
2026-05-06 18:23 35.79432 18.12822 35036 ft 488 kts 93°
2026-05-06 18:23 35.78783 18.21091 35038 ft 489 kts 93°
2026-05-06 18:24 35.78118 18.29430 35036 ft 489 kts 93°
2026-05-06 18:24 35.77449 18.37741 35042 ft 491 kts 93°
2026-05-06 18:25 35.76769 18.46138 35042 ft 494 kts 93°
2026-05-06 18:25 35.76078 18.54588 35042 ft 497 kts 93°
2026-05-06 18:26 35.75438 18.62349 35039 ft 495 kts 93°
2026-05-06 18:26 35.74740 18.70741 35040 ft 491 kts 94°
2026-05-06 18:27 35.74040 18.79088 35047 ft 490 kts 94°
2026-05-06 18:27 35.73457 18.85995 35044 ft 489 kts 94°
2026-05-06 18:28 35.72666 18.95282 35049 ft 490 kts 94°
2026-05-06 18:28 35.72071 19.02212 35051 ft 491 kts 94°
2026-05-06 18:29 35.71350 19.10567 35060 ft 491 kts 94°
2026-05-06 18:29 35.70620 19.18945 35058 ft 493 kts 94°
2026-05-06 18:30 35.69883 19.27330 35057 ft 494 kts 94°
2026-05-06 18:30 35.69139 19.35729 35060 ft 494 kts 94°
2026-05-06 18:31 35.68387 19.44149 35055 ft 495 kts 95°
2026-05-06 18:31 35.67631 19.52547 35052 ft 494 kts 95°
2026-05-06 18:32 35.66869 19.60943 35054 ft 493 kts 95°
2026-05-06 18:32 35.66104 19.69301 35054 ft 491 kts 95°
2026-05-06 18:33 35.65340 19.77612 35058 ft 490 kts 95°
2026-05-06 18:33 35.64568 19.85915 35065 ft 488 kts 95°
2026-05-06 18:34 35.63794 19.94192 35064 ft 486 kts 95°
2026-05-06 18:34 35.63018 20.02435 35068 ft 485 kts 95°
2026-05-06 18:35 35.62237 20.10644 35075 ft 484 kts 95°
2026-05-06 18:35 35.61451 20.18863 35073 ft 483 kts 95°
2026-05-06 18:36 35.60661 20.27060 35073 ft 483 kts 95°
2026-05-06 18:36 35.59865 20.35265 35081 ft 484 kts 96°
2026-05-06 18:37 35.59062 20.43477 35078 ft 485 kts 96°
2026-05-06 18:37 35.58252 20.51705 35088 ft 486 kts 96°
2026-05-06 18:38 35.57435 20.59957 35094 ft 487 kts 96°
2026-05-06 18:38 35.56610 20.68223 35095 ft 488 kts 96°
2026-05-06 18:39 35.55785 20.76483 35074 ft 484 kts 95°
2026-05-06 18:40 35.54546 20.88735 35105 ft 487 kts 96°
2026-05-06 18:40 35.53687 20.97044 35098 ft 492 kts 96°
2026-05-06 18:41 35.52860 21.05066 35092 ft 492 kts 96°
2026-05-06 18:41 35.51999 21.13391 35087 ft 491 kts 96°
2026-05-06 18:42 35.51133 21.21701 35091 ft 490 kts 96°
2026-05-06 18:42 35.50264 21.29992 35095 ft 489 kts 96°
2026-05-06 18:43 35.49395 21.38246 35092 ft 487 kts 96°
2026-05-06 18:43 35.48523 21.46472 35098 ft 486 kts 96°
2026-05-06 18:44 35.47649 21.54676 35091 ft 484 kts 96°
2026-05-06 18:44 35.46769 21.62858 35095 ft 483 kts 96°
2026-05-06 18:45 35.45887 21.71025 35083 ft 482 kts 96°
2026-05-06 18:45 35.45002 21.79165 35086 ft 481 kts 96°
2026-05-06 18:46 35.44111 21.87296 35098 ft 481 kts 96°
2026-05-06 18:46 35.43215 21.95429 35086 ft 481 kts 96°
2026-05-06 18:47 35.42315 22.03553 35095 ft 481 kts 97°
2026-05-06 18:47 35.41408 22.11690 35100 ft 481 kts 97°
2026-05-06 18:48 35.40501 22.19769 35103 ft 482 kts 97°
2026-05-06 18:48 35.39582 22.27907 35101 ft 482 kts 97°
2026-05-06 18:49 35.38657 22.36051 35102 ft 482 kts 97°
2026-05-06 18:49 35.37723 22.44184 35102 ft 482 kts 97°
2026-05-06 18:50 35.36781 22.52323 35101 ft 483 kts 97°
2026-05-06 18:50 35.35834 22.60473 35101 ft 483 kts 97°
2026-05-06 18:51 35.34881 22.68632 35100 ft 484 kts 97°
2026-05-06 18:51 35.33923 22.76780 35103 ft 484 kts 97°
2026-05-06 18:52 35.32960 22.84933 35100 ft 484 kts 97°
2026-05-06 18:52 35.31988 22.93090 35104 ft 484 kts 97°
2026-05-06 18:53 35.31014 23.01236 35104 ft 484 kts 97°
2026-05-06 18:53 35.30033 23.09384 35099 ft 484 kts 97°
2026-05-06 18:54 35.29049 23.17520 35102 ft 483 kts 97°
2026-05-06 18:54 35.28059 23.25651 35101 ft 483 kts 97°
2026-05-06 18:55 35.27063 23.33789 35104 ft 483 kts 97°
2026-05-06 18:55 35.26061 23.41923 35102 ft 484 kts 97°
2026-05-06 18:56 35.25053 23.50057 35102 ft 483 kts 97°
2026-05-06 18:56 35.24042 23.58182 35101 ft 483 kts 97°
2026-05-06 18:57 35.23031 23.66258 35100 ft 484 kts 97°
2026-05-06 18:57 35.22312 23.74426 35106 ft 483 kts 92°
2026-05-06 18:58 35.21942 23.82617 35102 ft 483 kts 91°
2026-05-06 18:58 35.21569 23.90808 35100 ft 483 kts 92°
2026-05-06 18:59 35.21141 23.99001 35097 ft 483 kts 92°
2026-05-06 18:59 35.20682 24.07193 35100 ft 483 kts 92°
2026-05-06 19:00 35.20219 24.15386 35101 ft 484 kts 92°
2026-05-06 19:00 35.19752 24.23586 35101 ft 484 kts 92°
2026-05-06 19:01 35.19281 24.31810 35101 ft 485 kts 92°
2026-05-06 19:01 35.18802 24.40034 35101 ft 485 kts 92°
2026-05-06 19:02 35.18317 24.48258 35102 ft 485 kts 92°
2026-05-06 19:02 35.17828 24.56489 35106 ft 485 kts 92°
2026-05-06 19:03 35.17332 24.64714 35099 ft 486 kts 92°
2026-05-06 19:03 35.16798 24.72938 35104 ft 486 kts 93°
2026-05-06 19:04 35.16248 24.81177 35107 ft 486 kts 93°
2026-05-06 19:04 35.15701 24.89404 35078 ft 486 kts 93°
2026-05-06 19:05 35.15158 24.97614 35098 ft 485 kts 92°
2026-05-06 19:05 35.14638 25.05828 35106 ft 485 kts 92°
2026-05-06 19:06 35.14114 25.14051 35097 ft 486 kts 92°
2026-05-06 19:06 35.13581 25.22291 35103 ft 487 kts 92°
2026-05-06 19:07 35.13040 25.30543 35104 ft 487 kts 92°
2026-05-06 19:07 35.12493 25.38797 35131 ft 488 kts 92°
2026-05-06 19:08 35.11940 25.47055 35130 ft 488 kts 92°
2026-05-06 19:08 35.11382 25.55319 35121 ft 489 kts 93°
2026-05-06 19:09 35.10818 25.63592 35124 ft 489 kts 93°
2026-05-06 19:09 35.10247 25.71877 35137 ft 489 kts 93°
2026-05-06 19:10 35.09669 25.80154 35133 ft 490 kts 93°
2026-05-06 19:10 35.09070 25.88433 35127 ft 490 kts 93°
2026-05-06 19:11 35.08460 25.96662 35121 ft 490 kts 93°
2026-05-06 19:11 35.07846 26.04937 35122 ft 489 kts 93°
2026-05-06 19:12 35.07223 26.13218 35115 ft 490 kts 94°
2026-05-06 19:12 35.05470 26.21257 35116 ft 493 kts 112°
2026-05-06 19:13 35.02064 26.28503 35124 ft 493 kts 122°
2026-05-06 19:13 34.98355 26.35543 35114 ft 494 kts 123°
2026-05-06 19:14 34.94665 26.42607 35110 ft 494 kts 122°
2026-05-06 19:14 34.91006 26.49697 35112 ft 494 kts 122°
2026-05-06 19:15 34.87356 26.56795 35110 ft 495 kts 122°
2026-05-06 19:15 34.84316 26.62698 35112 ft 495 kts 122°
2026-05-06 19:16 34.80651 26.69794 35111 ft 495 kts 122°
2026-05-06 19:16 34.76979 26.76884 35110 ft 496 kts 122°
2026-05-06 19:17 34.73300 26.83975 35110 ft 495 kts 122°
2026-05-06 19:17 34.69622 26.91050 35110 ft 495 kts 122°
2026-05-06 19:18 34.65933 26.98129 35110 ft 495 kts 122°
2026-05-06 19:18 34.62248 27.05192 35109 ft 495 kts 122°
2026-05-06 19:19 34.58556 27.12252 35110 ft 495 kts 122°
2026-05-06 19:19 34.54857 27.19312 35112 ft 495 kts 122°
2026-05-06 19:20 34.51156 27.26362 35102 ft 496 kts 123°
2026-05-06 19:20 34.47451 27.33405 35103 ft 495 kts 123°
2026-05-06 19:21 34.43743 27.40436 35101 ft 495 kts 123°
2026-05-06 19:21 34.40032 27.47464 35102 ft 495 kts 123°
2026-05-06 19:22 34.36316 27.54486 35101 ft 496 kts 123°
2026-05-06 19:22 34.32593 27.61505 35101 ft 495 kts 123°
2026-05-06 19:23 34.28874 27.68506 35102 ft 495 kts 123°
2026-05-06 19:23 34.25148 27.75507 35102 ft 495 kts 123°
2026-05-06 19:24 34.21415 27.82506 35105 ft 494 kts 123°
2026-05-06 19:24 34.17686 27.89483 35110 ft 494 kts 123°
2026-05-06 19:25 34.13955 27.96452 35110 ft 494 kts 123°
2026-05-06 19:25 34.10217 28.03417 35112 ft 494 kts 123°
2026-05-06 19:26 34.06482 28.10366 35110 ft 494 kts 123°
2026-05-06 19:26 34.02763 28.17272 35117 ft 493 kts 123°
2026-05-06 19:27 33.99023 28.24205 35121 ft 493 kts 123°
2026-05-06 19:27 33.95280 28.31127 35120 ft 493 kts 123°
2026-05-06 19:28 33.91531 28.38050 35120 ft 493 kts 124°
2026-05-06 19:28 33.87777 28.44968 35119 ft 494 kts 124°
2026-05-06 19:29 33.84022 28.51875 35118 ft 494 kts 124°
2026-05-06 19:29 33.80250 28.58799 35110 ft 495 kts 124°
2026-05-06 19:30 33.76476 28.65718 35110 ft 495 kts 124°
2026-05-06 19:30 33.72693 28.72633 35113 ft 495 kts 125°
2026-05-06 19:31 33.68204 28.78845 35122 ft 492 kts 139°
2026-05-06 19:31 33.60618 28.87173 35115 ft 493 kts 140°
2026-05-06 19:32 33.55573 28.92747 35111 ft 494 kts 139°
2026-05-06 19:32 33.50541 28.98363 35112 ft 494 kts 139°
2026-05-06 19:33 33.45512 29.03986 35109 ft 495 kts 139°
2026-05-06 19:33 33.40470 29.09611 35112 ft 495 kts 139°
2026-05-06 19:34 33.35426 29.15225 35111 ft 495 kts 139°
2026-05-06 19:34 33.30409 29.20797 35108 ft 495 kts 139°
2026-05-06 19:35 33.25362 29.26395 35112 ft 494 kts 139°
2026-05-06 19:35 33.20323 29.31976 35112 ft 494 kts 140°
2026-05-06 19:36 33.15280 29.37550 35111 ft 494 kts 140°
2026-05-06 19:36 33.10233 29.43120 35111 ft 494 kts 140°
2026-05-06 19:37 33.05195 29.48672 35109 ft 493 kts 140°
2026-05-06 19:37 33.00153 29.54218 35114 ft 493 kts 140°
2026-05-06 19:38 32.95106 29.59760 35113 ft 493 kts 140°
2026-05-06 19:38 32.90068 29.65285 35110 ft 492 kts 140°
2026-05-06 19:39 32.85031 29.70798 35115 ft 492 kts 140°
2026-05-06 19:39 32.80000 29.76298 35108 ft 491 kts 140°
2026-05-06 19:40 32.74971 29.81786 35112 ft 490 kts 140°
2026-05-06 19:40 32.69951 29.87255 35110 ft 490 kts 140°
2026-05-06 19:41 32.64925 29.92720 35113 ft 489 kts 140°
2026-05-06 19:41 32.59913 29.98164 35104 ft 488 kts 140°
2026-05-06 19:42 32.54902 30.03599 35099 ft 488 kts 140°
2026-05-06 19:42 32.49902 30.09014 35107 ft 487 kts 140°
2026-05-06 19:43 32.44902 30.14412 35112 ft 486 kts 140°
2026-05-06 19:43 32.39935 30.19765 35110 ft 486 kts 140°
2026-05-06 19:44 32.34930 30.25152 35111 ft 486 kts 140°
2026-05-06 19:44 32.29931 30.30525 35110 ft 486 kts 140°
2026-05-06 19:45 32.24930 30.35892 35112 ft 486 kts 140°
2026-05-06 19:45 32.19926 30.41254 35110 ft 486 kts 140°
2026-05-06 19:46 32.14916 30.46615 35111 ft 486 kts 141°
2026-05-06 19:46 32.09897 30.51977 35113 ft 487 kts 141°
2026-05-06 19:47 32.04866 30.57344 35109 ft 488 kts 141°
2026-05-06 19:47 31.99831 30.62705 35111 ft 488 kts 141°
2026-05-06 19:48 31.94791 30.68065 35117 ft 488 kts 141°
2026-05-06 19:48 31.89752 30.73414 35109 ft 488 kts 141°
2026-05-06 19:49 31.84708 30.78762 35112 ft 488 kts 141°
2026-05-06 19:49 31.79667 30.84099 35111 ft 487 kts 141°
2026-05-06 19:50 31.74627 30.89424 35109 ft 487 kts 141°
2026-05-06 19:50 31.69596 30.94733 35110 ft 487 kts 141°
2026-05-06 19:51 31.64558 31.00042 35110 ft 487 kts 141°
2026-05-06 19:51 31.59582 31.05285 35081 ft 468 kts 141°
2026-05-06 19:52 31.57186 31.07806 34939 ft 458 kts 141°
2026-05-06 19:52 31.54768 31.10113 34469 ft 453 kts 150°
2026-05-06 19:52 31.52012 31.11902 33504 ft 457 kts 161°
2026-05-06 19:52 31.48943 31.13125 32438 ft 462 kts 171°
2026-05-06 19:53 31.45756 31.13769 31410 ft 469 kts 176°
2026-05-06 19:53 31.42546 31.14300 30457 ft 475 kts 176°
2026-05-06 19:53 31.39270 31.14845 29424 ft 474 kts 176°
2026-05-06 19:53 31.35958 31.15421 28128 ft 477 kts 175°
2026-05-06 19:54 31.32711 31.16008 26865 ft 479 kts 175°
2026-05-06 19:54 31.29425 31.16619 26343 ft 468 kts 175°
2026-05-06 19:54 31.26271 31.17202 25705 ft 465 kts 175°
2026-05-06 19:54 31.23083 31.17790 25053 ft 462 kts 175°
2026-05-06 19:55 31.19906 31.18380 24301 ft 461 kts 174°
2026-05-06 19:55 31.17202 31.18886 23772 ft 458 kts 172°
2026-05-06 19:55 31.14063 31.19477 23052 ft 455 kts 171°
2026-05-06 19:55 31.10943 31.20060 22412 ft 451 kts 171°
2026-05-06 19:56 31.07865 31.20636 21775 ft 446 kts 171°
2026-05-06 19:56 31.04818 31.21205 21148 ft 441 kts 171°
2026-05-06 19:56 31.01797 31.21768 20538 ft 437 kts 171°
2026-05-06 19:56 30.98810 31.22324 19929 ft 433 kts 171°
2026-05-06 19:57 30.95855 31.22874 19324 ft 429 kts 171°
2026-05-06 19:57 30.92923 31.23420 18725 ft 425 kts 171°
2026-05-06 19:57 30.90028 31.23959 18129 ft 421 kts 171°
2026-05-06 19:57 30.87137 31.24496 17533 ft 417 kts 171°
2026-05-06 19:58 30.84287 31.25025 16936 ft 414 kts 171°
2026-05-06 19:58 30.81453 31.25552 16362 ft 410 kts 171°
2026-05-06 19:58 30.78641 31.26074 15777 ft 407 kts 171°
2026-05-06 19:58 30.75858 31.26590 15193 ft 404 kts 171°
2026-05-06 19:59 30.73101 31.27101 14625 ft 401 kts 171°
2026-05-06 19:59 30.70365 31.27390 14108 ft 387 kts 180°
2026-05-06 19:59 30.67730 31.27286 13293 ft 381 kts 183°
2026-05-06 19:59 30.65034 31.27121 12424 ft 384 kts 183°
2026-05-06 20:00 30.62409 31.26957 11827 ft 372 kts 183°
2026-05-06 20:00 30.59882 31.26810 11498 ft 355 kts 183°
2026-05-06 20:00 30.57453 31.26680 10954 ft 346 kts 183°
2026-05-06 20:00 30.55068 31.26561 10622 ft 337 kts 182°
2026-05-06 20:01 30.52716 31.26449 10474 ft 342 kts 182°
2026-05-06 20:01 30.50319 31.26338 10328 ft 347 kts 182°
2026-05-06 20:01 30.47900 31.26227 10172 ft 348 kts 182°
2026-05-06 20:01 30.45492 31.26119 10016 ft 345 kts 182°
2026-05-06 20:02 30.43113 31.26012 9676 ft 349 kts 182°
2026-05-06 20:02 30.40685 31.25903 9330 ft 348 kts 182°
2026-05-06 20:02 30.38279 31.25795 8984 ft 346 kts 182°
2026-05-06 20:02 30.35886 31.25689 8639 ft 342 kts 182°
2026-05-06 20:03 30.33522 31.25583 8291 ft 337 kts 182°
2026-05-06 20:03 30.31201 31.25480 7945 ft 328 kts 182°
2026-05-06 20:03 30.28970 31.25380 7611 ft 314 kts 182°
2026-05-06 20:03 30.26832 31.25285 7299 ft 301 kts 182°
2026-05-06 20:04 30.25438 31.25223 7127 ft 292 kts 182°
2026-05-06 20:04 30.23454 31.25135 6895 ft 280 kts 182°
2026-05-06 20:04 30.21558 31.25050 6517 ft 273 kts 182°
2026-05-06 20:04 30.19695 31.24967 5995 ft 262 kts 182°
2026-05-06 20:05 30.17888 31.24887 5507 ft 251 kts 182°
2026-05-06 20:05 30.16190 31.24811 5125 ft 244 kts 182°
2026-05-06 20:05 30.14507 31.24736 4717 ft 240 kts 182°
2026-05-06 20:05 30.12849 31.24662 4314 ft 236 kts 182°
2026-05-06 20:06 30.11219 31.24589 3915 ft 233 kts 182°
2026-05-06 20:06 30.09605 31.24517 3514 ft 230 kts 182°
2026-05-06 20:06 30.08008 31.24446 3115 ft 229 kts 182°
2026-05-06 20:06 30.06422 31.24376 2760 ft 228 kts 182°
2026-05-06 20:07 30.04823 31.24304 2739 ft 231 kts 182°
2026-05-06 20:07 30.03225 31.24234 2698 ft 228 kts 182°
2026-05-06 20:07 30.01643 31.24163 2699 ft 224 kts 182°
2026-05-06 20:07 30.00150 31.24097 2668 ft 204 kts 182°
2026-05-06 20:08 29.98787 31.24093 2668 ft 191 kts 168°
2026-05-06 20:08 29.97734 31.24927 2725 ft 190 kts 117°
2026-05-06 20:08 29.97620 31.26376 2679 ft 181 kts 64°
2026-05-06 20:08 29.98413 31.27411 2726 ft 170 kts 41°
2026-05-06 20:09 29.99260 31.28346 2726 ft 167 kts 45°
2026-05-06 20:09 30.00050 31.29288 2734 ft 161 kts 46°
2026-05-06 20:09 30.00813 31.30235 2701 ft 162 kts 46°
2026-05-06 20:09 30.01613 31.31154 2703 ft 162 kts 45°
2026-05-06 20:10 30.02379 31.32098 2631 ft 157 kts 47°
2026-05-06 20:10 30.03081 31.33018 2434 ft 150 kts 49°
2026-05-06 20:10 30.03752 31.33912 2247 ft 146 kts 49°
2026-05-06 20:10 30.04417 31.34804 2062 ft 147 kts 49°
2026-05-06 20:11 30.05086 31.35700 1864 ft 147 kts 49°
2026-05-06 20:11 30.05750 31.36592 1668 ft 146 kts 49°
2026-05-06 20:11 30.06413 31.37480 1476 ft 146 kts 49°
2026-05-06 20:11 30.07066 31.38356 1287 ft 145 kts 49°
2026-05-06 20:12 30.07733 31.39249 1090 ft 145 kts 49°
2026-05-06 20:12 30.08392 31.40132 900 ft 145 kts 49°
2026-05-06 20:12 30.09045 31.41007 714 ft 144 kts 49°
2026-05-06 20:12 30.09699 31.41884 518 ft 144 kts 49°
2026-05-06 20:13 30.10314 31.42705 460 ft 113 kts 49°
2026-05-06 20:13 30.10744 31.43277 461 ft 64 kts 50°
2026-05-06 20:13 30.10927 31.43470 460 ft 32 kts 33°
2026-05-06 20:13 30.11082 31.43560 457 ft 20 kts 24°
2026-05-06 20:14 30.11125 31.43582 455 ft 0 kts 25°
2026-05-06 20:14 30.11128 31.43584 453 ft 1 kts 25°
2026-05-06 20:14 30.11135 31.43588 455 ft 3 kts 26°
2026-05-06 20:14 30.11143 31.43593 455 ft 1 kts 26°
2026-05-06 20:15 30.11205 31.43596 450 ft 14 kts 331°
2026-05-06 20:15 30.11250 31.43497 435 ft 15 kts 250°
2026-05-06 20:15 30.11273 31.43395 434 ft 15 kts 316°
2026-05-06 20:15 30.11366 31.43304 434 ft 20 kts 319°
2026-05-06 20:16 30.11478 31.43192 419 ft 23 kts 319°
2026-05-06 20:16 30.11606 31.43065 411 ft 25 kts 319°
2026-05-06 20:16 30.11747 31.42926 399 ft 28 kts 319°
2026-05-06 20:16 30.11895 31.42777 391 ft 28 kts 320°
2026-05-06 20:17 30.11963 31.42710 385 ft 6 kts 319°
2026-05-06 20:17 30.12003 31.42670 382 ft 9 kts 320°
2026-05-06 20:17 30.12064 31.42610 380 ft 13 kts 319°
2026-05-06 20:17 30.12135 31.42541 376 ft 15 kts 320°
2026-05-06 20:18 30.12181 31.42495 371 ft 3 kts 320°
2026-05-06 20:18 30.12184 31.42492 371 ft 2 kts 317°
2026-05-06 20:18 30.12202 31.42444 368 ft 10 kts 278°
2026-05-06 20:18 30.12172 31.42362 369 ft 11 kts 231°
2026-05-06 20:19 30.12116 31.42286 371 ft 16 kts 229°
2026-05-06 20:19 30.12030 31.42171 372 ft 17 kts 229°
2026-05-06 20:19 30.11971 31.42092 369 ft 12 kts 229°
2026-05-06 20:19 30.11919 31.42024 368 ft 12 kts 229°
2026-05-06 20:20 30.11856 31.41940 372 ft 15 kts 229°
2026-05-06 20:20 30.11791 31.41853 371 ft 14 kts 229°
2026-05-06 20:20 30.11730 31.41771 371 ft 13 kts 229°
2026-05-06 20:20 30.11665 31.41685 370 ft 15 kts 229°
2026-05-06 20:21 30.11597 31.41594 370 ft 15 kts 229°
2026-05-06 20:21 30.11533 31.41509 371 ft 13 kts 229°
2026-05-06 20:21 30.11471 31.41427 368 ft 14 kts 229°
2026-05-06 20:21 30.11410 31.41344 368 ft 13 kts 238°
2026-05-06 20:22 30.11421 31.41243 367 ft 15 kts 284°
2026-05-06 20:22 30.11378 31.41142 362 ft 14 kts 228°
2026-05-06 20:22 30.11313 31.41056 367 ft 14 kts 229°
2026-05-06 20:22 30.11256 31.40981 363 ft 9 kts 229°
2026-05-06 20:23 30.11245 31.40927 364 ft 2 kts 296°
2026-05-06 20:23 30.11265 31.40904 361 ft 5 kts 320°
2026-05-06 20:23 30.11291 31.40882 357 ft 4 kts 322°
2026-05-06 20:23 30.11300 31.40873 361 ft 1 kts 320°
2026-05-06 20:24 30.11302 31.40871 360 ft 0 kts 320°